Tracking 19564 objects as of 19-Mar-2019
HD Live streaming from Space Station
objects crossing your sky now

FENGYUN 1C DEB

Track FENGYUN 1C DEB now!
10-day predictions


NORAD ID: 30483
Int'l Code: 1999-025AGV
Perigee: 514.7 km
Apogee: 649.9 km
Inclination: 99.0 °
Period: 96.2 minutes
Semi major axis: 6953 km
RCS: 0.0087 m2 (small)
Launch date: May 10, 1999
Source: People's Republic of China (PRC)
Launch site: Taiyaun Space Center, China (TSC)

Note: This is SATELLITE DEBRIS
aabbcc
Your satellite tracking list
Your tracking list is empty




NASA's NSSDC Master Catalog

Two Line Element Set (TLE):
1 30483U 99025AGV 19077.63307120 +.00004644 +00000-0 +36975-3 0  9990
2 30483 098.9635 143.4259 0097276 012.8605 347.5060 14.97325140646750
Source of the keplerian elements: AFSPC